Location: Indian Springs
(36.5700°N, 115.6700°W)
Time: 02:36:07
(UTC-08:00)

Amateur Radio Satellites - All Passes

Search period start: 07 February 2016 02:06
Search period end: 08 February 2016 02:06
Location: Indian Springs, 36.5700°N, 115.6700°W

Satellite Date Start Highest point End Downlink Frequencies (MHz)
Time Altitude Azimuth
BEESAT 2 07 Feb 02:12:13 02:15:35 25° 53° (NE) 02:18:54 435.950
Oscar 19 07 Feb 02:22:28 02:26:15 21° 294° (WNW) 02:30:03 437.125/150
AO-7 07 Feb 02:25:55 02:32:29 25° 95° (E) 02:38:59 29.400- 29.500
Gurwin Techsat 1B 07 Feb 02:26:14 02:31:25 54° 287° (WNW) 02:36:34 435.225
PHONESAT 2.4 07 Feb 02:27:58 02:31:14 74° 343° (NNW) 02:34:31 2401.200-2431.200
ITUPSAT 1 07 Feb 02:29:48 02:31:45 12° 268° (W) 02:33:42 437.325
MOZHAYETS 4 07 Feb 03:02:00 03:06:32 78° 76° (ENE) 03:11:07
JAS-2 07 Feb 03:04:16 03:07:39 16° 299° (WNW) 03:10:53 435.910
M-CUBED/EXP-1 PRIME 07 Feb 03:05:55 03:07:58 15° 101° (E) 03:10:03 437.505
Cosmos 2491 07 Feb 03:09:23 03:17:44 52° 270° (W) 03:26:07 435.465 / 435.565
CUSAT 1 07 Feb 03:14:11 03:20:18 25° 292° (WNW) 03:26:39 437.405
HORYU 2 07 Feb 03:17:03 03:20:15 19° 95° (E) 03:23:26 437.375
AUBIESAT-1 07 Feb 03:18:18 03:20:45 18° 102° (ESE) 03:23:16 437.475
DANDE 07 Feb 03:19:22 03:26:03 36° 289° (WNW) 03:33:37 436.750
ITAMSAT 1 07 Feb 03:23:35 03:28:04 29° 292° (WNW) 03:32:33 435.822/435.867
STARS 07 Feb 03:23:53 03:27:58 37° 261° (W) 03:32:04 437.465
BEESAT 3 07 Feb 03:31:43 03:34:54 24° 248° (WSW) 03:38:04 437.485
KKS-1 07 Feb 03:33:54 03:36:43 16° 266° (W) 03:39:31 437.445
CUBESAT XI-V 07 Feb 03:35:38 03:38:39 17° 66° (ENE) 03:41:39 437.345
Cosmos 2504 07 Feb 03:42:02 03:48:41 27° 82° (E) 03:55:34 435.465 / 435.565
AIST 2 07 Feb 03:42:18 03:45:44 25° 52° (NE) 03:49:07 435.215
BEESAT 2 07 Feb 03:50:09 03:53:22 24° 248° (WSW) 03:56:34 435.950
YUBILEINY 07 Feb 03:56:39 04:05:10 55° 281° (WNW) 04:13:49 435.215
PHONESAT 2.4 07 Feb 04:05:39 04:08:45 39° 359° (N) 04:11:52 2401.200-2431.200
AO-7 07 Feb 04:17:30 04:25:42 64° 292° (WNW) 04:33:50 29.400- 29.500
STRAND 1 07 Feb 04:39:10 04:40:34 11° 61° (ENE) 04:41:59 437.568
M-CUBED/EXP-1 PRIME 07 Feb 04:39:49 04:42:36 24° 292° (WNW) 04:45:30 437.505
CUTE-I 07 Feb 04:40:39 04:42:13 11° 90° (E) 04:43:48 437.470
SO-50 07 Feb 04:41:21 04:45:59 45° 115° (ESE) 04:50:42 436.795
Cubesat XI-IV 07 Feb 04:51:59 04:55:06 15° 92° (E) 04:58:13 437.490
AUBIESAT-1 07 Feb 04:52:37 04:55:16 21° 293° (WNW) 04:58:01 437.475
HORYU 2 07 Feb 04:52:52 04:56:52 33° 289° (WNW) 05:00:50 437.375
CUBESAT XI-V 07 Feb 05:11:12 05:15:38 44° 261° (W) 05:20:09 437.345
AIST 2 07 Feb 05:20:41 05:24:10 26° 248° (WSW) 05:27:35 435.215
Cosmos 2504 07 Feb 05:33:02 05:41:20 61° 281° (W) 05:50:06 435.465 / 435.565
PHONESAT 2.4 07 Feb 05:43:03 05:46:19 64° 16° (NNE) 05:49:34 2401.200-2431.200
AO-7 07 Feb 06:13:42 06:16:49 13° 311° (NW) 06:19:57 29.400- 29.500
STRAND 1 07 Feb 06:13:54 06:19:00 82° 257° (WSW) 06:24:09 437.568
GOMX 1 07 Feb 06:14:39 06:18:15 24° 94° (E) 06:21:41 467.674
CUTE-I 07 Feb 06:17:24 06:22:47 77° 285° (WNW) 06:28:08 437.470
SO-50 07 Feb 06:22:52 06:26:41 22° 311° (NW) 06:30:34 436.795
LilacSat-2 07 Feb 06:25:45 06:29:24 48° 286° (WNW) 06:33:03 437.200
Cubesat XI-IV 07 Feb 06:30:14 06:35:30 58° 287° (WNW) 06:40:46 437.490
BRITE-PL 07 Feb 06:30:27 06:35:18 82° 102° (ESE) 06:39:44 437.365/2234.400
PRISM 07 Feb 06:31:31 06:35:28 45° 73° (ENE) 06:39:28 437.425
CUTE 1.7 + AOD 2 07 Feb 07:00:19 07:02:47 15° 93° (E) 07:05:14 437.475
SEEDS 07 Feb 07:12:03 07:14:32 15° 93° (E) 07:17:00 437.485
PHONESAT 2.4 07 Feb 07:20:36 07:23:27 28° 211° (SSW) 07:26:17 2401.200-2431.200
GONETS M04 07 Feb 07:27:28 07:33:38 22° 81° (E) 07:39:49
CINEMA 3 07 Feb 07:27:47 07:31:11 24° 96° (E) 07:34:36 145.822/145.860
O/OREOS (USA 219) 07 Feb 07:33:04 07:37:14 39° 105° (ESE) 07:41:25 437.305
AAUSAT CUBESAT 2 07 Feb 07:34:48 07:37:29 16° 93° (E) 07:40:07 437.432
CANX-2 07 Feb 07:43:23 07:47:36 56° 100° (E) 07:51:49 2200.000
HO-68 07 Feb 07:48:08 07:55:15 58° 102° (ESE) 08:02:17 435.675
DOVE 4 07 Feb 07:48:13 07:52:24 54° 286° (WNW) 07:56:25 437.250
GOMX 1 07 Feb 07:52:38 07:56:16 25° 291° (WNW) 07:59:46 467.674
CUBEBUG 2 07 Feb 07:55:26 07:58:15 17° 94° (E) 08:01:05 437.445
UWE-3 07 Feb 08:02:53 08:05:20 15° 94° (E) 08:07:48 435.000/436.395/437.385
UNISAT 6 07 Feb 08:08:27 08:09:35 11° 65° (ENE) 08:10:43 437.425
PRISM 07 Feb 08:09:18 08:11:01 12° 267° (W) 08:12:46 437.425
Oscar 11 07 Feb 08:15:19 08:18:30 20° 94° (E) 08:21:41 145.826/435.025
CUTE 1.7 + AOD 2 07 Feb 08:34:46 08:38:46 39° 287° (WNW) 08:42:46 437.475
COMPASS 1 07 Feb 08:37:23 08:41:35 68° 284° (WNW) 08:45:47 437.405
SEEDS 07 Feb 08:46:25 08:50:23 38° 287° (WNW) 08:54:20 437.485
ANTELSAT 07 Feb 08:50:27 08:54:22 33° 72° (ENE) 08:58:13 437.575/2403.000
Cosmos 2499 07 Feb 08:50:45 08:58:18 36° 85° (E) 09:06:04 435.465 / 435.565
TIGRISAT 07 Feb 08:58:13 09:02:15 38° 73° (ENE) 09:06:15 435.000
ZACube-1 07 Feb 09:02:21 09:06:28 53° 100° (E) 09:10:39 437.345
CINEMA 3 07 Feb 09:05:00 09:08:14 22° 290° (WNW) 09:11:27 145.822/145.860
AAUSAT CUBESAT 2 07 Feb 09:09:14 09:13:04 35° 288° (WNW) 09:16:53 437.432
DELFI C3 07 Feb 09:10:58 09:14:52 46° 99° (E) 09:18:45 145.870
FUNcube-1 07 Feb 09:12:56 09:17:07 69° 102° (ESE) 09:21:22 145.935
O/OREOS (USA 219) 07 Feb 09:13:45 09:16:47 18° 301° (WNW) 09:19:50 437.305
GONETS M04 07 Feb 09:20:56 09:29:33 68° 279° (W) 09:38:15
CANX-2 07 Feb 09:21:31 09:22:57 11° 295° (WNW) 09:24:24 2200.000
POPSAT HIP 1 07 Feb 09:25:33 09:28:32 19° 68° (ENE) 09:31:31 437.405
PCSat 07 Feb 09:30:27 09:32:51 13° 103° (ESE) 09:35:15 145.827
CUBEBUG 2 07 Feb 09:31:13 09:34:56 32° 288° (WNW) 09:38:41 437.445
NANOSAT C BR1 07 Feb 09:31:49 09:35:03 22° 69° (ENE) 09:38:17 145.865
DUCHIFAT 1 07 Feb 09:34:32 09:37:48 22° 69° (ENE) 09:41:03 145.980
HO-68 07 Feb 09:36:48 09:42:26 26° 298° (WNW) 09:48:04 435.675
QB50P1 07 Feb 09:37:51 09:41:23 26° 70° (ENE) 09:44:55 145.935-145.965
UWE-3 07 Feb 09:38:03 09:41:54 37° 287° (WNW) 09:45:50 435.000/436.395/437.385
AO-85 07 Feb 09:41:15 09:45:45 29° 110° (ESE) 09:50:26 145.980
UNISAT 6 07 Feb 09:41:29 09:45:48 60° 259° (W) 09:50:03 437.425
HUMSAT D 07 Feb 09:46:17 09:50:19 48° 100° (E) 09:54:22 437.325/437.525
JUGNU 07 Feb 09:49:21 09:52:16 14° 175° (S) 09:55:09 437.505
Oscar 11 07 Feb 09:50:49 09:54:39 31° 289° (WNW) 09:58:28 145.826/435.025
AIST 1 07 Feb 09:56:33 10:00:24 31° 91° (E) 10:04:18
DX 1 07 Feb 09:59:20 10:00:57 12° 92° (E) 10:02:33 434.975-435.025
50 SAT 07 Feb 09:59:46 10:01:28 13° 93° (E) 10:03:09 437.505
RS-15 07 Feb 10:00:03 10:08:41 28° 102° (ESE) 10:17:36 29.354- 29.394
ANTELSAT 07 Feb 10:28:08 10:31:08 18° 266° (W) 10:34:06 437.575/2403.000
POLYITAN 1 07 Feb 10:28:26 10:32:40 75° 257° (WSW) 10:36:55 437.675
QB50P2 07 Feb 10:29:14 10:33:28 71° 258° (WSW) 10:37:43 145.880/145.840
TIGRISAT 07 Feb 10:36:29 10:39:04 15° 266° (W) 10:41:39 435.000
ZACube-1 07 Feb 10:40:53 10:42:18 12° 294° (WNW) 10:43:44 437.345
VELOX 1 07 Feb 10:41:34 10:45:38 35° 98° (E) 10:49:39 145.980
Cosmos 2499 07 Feb 10:42:55 10:51:06 47° 283° (WNW) 10:59:37 435.465 / 435.565
BUGSAT 1 07 Feb 10:47:22 10:51:36 84° 76° (ENE) 10:55:50 437.445
DELFI C3 07 Feb 10:47:42 10:49:21 12° 294° (WNW) 10:51:00 145.870
AISAT 07 Feb 10:57:29 11:01:51 57° 101° (E) 11:06:10 437.250
POPSAT HIP 1 07 Feb 11:00:17 11:04:06 32° 263° (W) 11:07:54 437.405
NANOSAT C BR1 07 Feb 11:07:01 11:10:38 27° 263° (W) 11:14:16 145.865
ESTCUBE 1 07 Feb 11:07:53 11:12:27 84° 102° (ESE) 11:16:59 437.505/2401.250
DUCHIFAT 1 07 Feb 11:09:47 11:13:21 26° 263° (W) 11:16:56 145.980
PCSat 07 Feb 11:10:10 11:15:33 71° 298° (WNW) 11:21:00 145.827
QB50P1 07 Feb 11:13:45 11:17:06 22° 264° (W) 11:20:27 145.935-145.965
SRMSAT 07 Feb 11:20:17 11:22:49 13° 171° (S) 11:25:20 437.500
AO-85 07 Feb 11:21:12 11:26:09 37° 307° (NW) 11:31:15 145.980
HUMSAT D 07 Feb 11:23:44 11:25:33 13° 294° (WNW) 11:27:20 437.325/437.525
CUBEBUG 1 07 Feb 11:25:29 11:29:52 83° 284° (WNW) 11:34:12 437.445
GONETS M04 07 Feb 11:25:58 11:28:07 11° 300° (WNW) 11:30:17
UKube-1 07 Feb 11:26:07 11:30:26 74° 285° (WNW) 11:34:43 .
JAS-2 07 Feb 11:26:09 11:32:10 26° 65° (ENE) 11:37:51 435.910
50 SAT 07 Feb 11:32:07 11:35:37 36° 287° (WNW) 11:39:07 437.505
DX 1 07 Feb 11:33:10 11:37:24 51° 287° (WNW) 11:41:36 434.975-435.025
AIST 1 07 Feb 11:34:55 11:38:02 19° 286° (WNW) 11:41:11
JUGNU 07 Feb 11:37:30 11:40:27 14° 185° (S) 11:43:23 437.505
SPROUT 07 Feb 11:40:19 11:44:27 47° 99° (E) 11:48:32 437.525
Oscar 19 07 Feb 11:56:41 12:01:38 47° 72° (ENE) 12:06:36 437.125/150
TISAT 1 07 Feb 12:00:31 12:04:06 27° 97° (E) 12:07:39 437.305
Gurwin Techsat 1B 07 Feb 12:06:29 12:10:27 22° 66° (ENE) 12:14:25 435.225
RS-15 07 Feb 12:08:48 12:19:51 73° 302° (WNW) 12:31:36 29.354- 29.394
CUSAT 1 07 Feb 12:11:52 12:17:28 37° 72° (ENE) 12:21:46 437.405
YUBILEINY 07 Feb 12:17:35 12:19:50 11° 60° (ENE) 12:22:04 435.215
VELOX 1 07 Feb 12:18:46 12:21:50 19° 293° (WNW) 12:24:52 145.980
DANDE 07 Feb 12:21:27 12:27:38 30° 68° (ENE) 12:32:36 436.750
AISAT 07 Feb 12:36:09 12:37:48 12° 296° (WNW) 12:39:28 437.250
ITUPSAT 1 07 Feb 12:52:52 12:56:12 18° 94° (E) 12:59:32 437.325
PCSat 07 Feb 12:58:34 12:59:56 11° 317° (NW) 13:01:18 145.827
ITAMSAT 1 07 Feb 12:59:42 13:04:23 36° 70° (ENE) 13:09:07 435.822/435.867
BEESAT 07 Feb 13:02:45 13:06:37 24° 96° (E) 13:10:29 436.000
SRMSAT 07 Feb 13:07:55 13:11:10 15° 182° (S) 13:14:25 437.500
JAS-2 07 Feb 13:08:58 13:16:41 62° 259° (W) 13:23:54 435.910
SO-50 07 Feb 13:15:44 13:19:33 23° 49° (NE) 13:23:16 436.795
SPROUT 07 Feb 13:17:59 13:19:59 13° 294° (WNW) 13:22:01 437.525
AO-7 07 Feb 13:22:26 13:29:21 30° 60° (ENE) 13:36:17 29.400- 29.500
TISAT 1 07 Feb 13:36:28 13:39:36 21° 291° (WNW) 13:42:43 437.305
Oscar 19 07 Feb 13:37:39 13:41:10 18° 267° (W) 13:44:40 437.125/150
Gurwin Techsat 1B 07 Feb 13:45:03 13:50:04 43° 261° (W) 13:55:07 435.225
M-CUBED/EXP-1 PRIME 07 Feb 13:51:25 13:53:36 15° 65° (ENE) 13:55:43 437.505
SWISSCUBE 07 Feb 13:54:01 13:58:50 85° 284° (WNW) 14:03:39 437.505
CUSAT 1 07 Feb 13:54:58 13:59:13 21° 277° (W) 14:02:43 437.405
AUBIESAT-1 07 Feb 14:03:22 14:05:49 17° 65° (ENE) 14:08:10 437.475
DANDE 07 Feb 14:04:15 14:10:44 39° 272° (W) 14:15:48 436.750
YUBILEINY 07 Feb 14:09:36 14:18:26 68° 81° (E) 14:27:10 435.215
Cosmos 2491 07 Feb 14:11:14 14:19:02 38° 87° (E) 14:26:50 435.465 / 435.565
HORYU 2 07 Feb 14:13:54 14:16:11 14° 65° (ENE) 14:18:29 437.375
RS-15 07 Feb 14:26:11 14:34:49 24° 330° (NNW) 14:43:50 29.354- 29.394
ITUPSAT 1 07 Feb 14:29:40 14:34:10 40° 289° (WNW) 14:38:39 437.325
ITAMSAT 1 07 Feb 14:39:46 14:43:53 24° 265° (W) 14:48:03 435.822/435.867
BEESAT 07 Feb 14:40:11 14:44:23 31° 290° (WNW) 14:48:34 436.000
SO-50 07 Feb 14:55:44 15:00:11 40° 246° (WSW) 15:04:28 436.795
SRMSAT 07 Feb 14:57:54 14:59:30 11° 192° (SSW) 15:01:07 437.500
ISS 07 Feb 14:58:36 15:00:44 17° 129° (SE) 15:02:54 145.825
MOZHAYETS 4 07 Feb 15:00:09 15:03:46 22° 95° (E) 15:07:22
AO-7 07 Feb 15:13:24 15:21:36 59° 257° (WSW) 15:29:51 29.400- 29.500
STARS 07 Feb 15:15:29 15:19:41 45° 100° (E) 15:23:51 437.465
M-CUBED/EXP-1 PRIME 07 Feb 15:24:39 15:28:03 30° 256° (WSW) 15:31:15 437.505
KKS-1 07 Feb 15:25:20 15:29:45 70° 285° (WNW) 15:34:08 437.445
Cosmos 2504 07 Feb 15:29:15 15:37:31 47° 76° (ENE) 15:45:13 435.465 / 435.565
AUBIESAT-1 07 Feb 15:37:02 15:40:14 26° 257° (WSW) 15:43:17 437.475
HORYU 2 07 Feb 15:48:03 15:52:19 48° 260° (W) 15:56:37 437.375
CUTE-I 07 Feb 15:59:26 16:02:36 16° 63° (ENE) 16:05:48 437.470
Cosmos 2491 07 Feb 16:07:36 16:15:42 42° 284° (WNW) 16:23:50 435.465 / 435.565
YUBILEINY 07 Feb 16:07:56 16:14:20 23° 279° (W) 16:20:45 435.215
Cubesat XI-IV 07 Feb 16:11:28 16:15:22 21° 65° (ENE) 16:19:17 437.490
ISS 07 Feb 16:33:53 16:36:58 39° 324° (NW) 16:40:03 145.825
MOZHAYETS 4 07 Feb 16:36:50 16:40:55 31° 289° (WNW) 16:45:01
RS-15 07 Feb 16:47:24 16:53:49 15° 7° (N) 17:00:20 29.354- 29.394
STARS 07 Feb 16:53:16 16:55:38 15° 295° (WNW) 16:58:02 437.465
LilacSat-2 07 Feb 17:05:05 17:08:49 52° 75° (ENE) 17:12:32 437.200
CUBESAT XI-V 07 Feb 17:10:00 17:14:39 55° 100° (E) 17:19:13 437.345
DOVE 4 07 Feb 17:16:25 17:18:03 11° 64° (ENE) 17:19:40 437.250
GOMX 1 07 Feb 17:19:22 17:23:47 26° 69° (ENE) 17:28:05 467.674
BEESAT 3 07 Feb 17:19:39 17:23:38 80° 300° (WNW) 17:27:38 437.485
Cosmos 2504 07 Feb 17:23:08 17:30:32 34° 275° (W) 17:37:32 435.465 / 435.565
CUTE-I 07 Feb 17:36:53 17:42:06 60° 259° (WSW) 17:47:24 437.470
BRITE-PL 07 Feb 17:37:02 17:42:42 73° 76° (ENE) 17:48:20 437.365/2234.400
BEESAT 2 07 Feb 17:39:16 17:43:17 76° 299° (WNW) 17:47:19 435.950
O/OREOS (USA 219) 07 Feb 17:45:07 17:49:36 51° 67° (ENE) 17:54:04 437.305
Cubesat XI-IV 07 Feb 17:50:02 17:55:05 44° 261° (W) 18:00:11 437.490
HO-68 07 Feb 18:14:27 18:20:43 34° 64° (ENE) 18:27:00 435.675
AO-85 07 Feb 18:16:21 18:19:29 16° 43° (NE) 18:22:29 145.980
STRAND 1 07 Feb 18:27:03 18:31:56 41° 99° (E) 18:36:47 437.568
CINEMA 3 07 Feb 18:27:18 18:30:41 20° 69° (ENE) 18:33:57 145.822/145.860
CANX-2 07 Feb 18:34:04 18:37:41 28° 71° (ENE) 18:41:18 2200.000
CUBESAT XI-V 07 Feb 18:49:08 18:51:31 14° 295° (WNW) 18:53:53 437.345
DOVE 4 07 Feb 18:49:56 18:55:09 78° 259° (WSW) 19:00:08 437.250
CUBEBUG 2 07 Feb 18:52:48 18:54:26 12° 66° (ENE) 18:56:04 437.445
GOMX 1 07 Feb 18:56:36 19:01:38 37° 263° (W) 19:06:33 467.674
RS-15 07 Feb 19:01:09 19:11:50 34° 41° (NE) 19:22:36 29.354- 29.394
Oscar 11 07 Feb 19:09:27 19:11:03 12° 65° (ENE) 19:12:37 145.826/435.025
AIST 2 07 Feb 19:15:04 19:19:13 72° 301° (WNW) 19:23:24 435.215
BRITE-PL 07 Feb 19:18:49 19:21:35 14° 270° (W) 19:24:21 437.365/2234.400
CUTE 1.7 + AOD 2 07 Feb 19:24:28 19:28:40 79° 258° (WSW) 19:32:54 437.475
COMPASS 1 07 Feb 19:25:34 19:29:36 55° 75° (ENE) 19:33:40 437.405
O/OREOS (USA 219) 07 Feb 19:26:25 19:28:29 13° 262° (W) 19:30:33 437.305
GONETS M04 07 Feb 19:34:10 19:42:46 55° 79° (ENE) 19:51:20
SEEDS 07 Feb 19:35:12 19:39:21 80° 258° (WSW) 19:43:34 437.485
PRISM 07 Feb 19:50:40 19:54:52 76° 285° (WNW) 19:59:01 437.425
AO-85 07 Feb 19:55:34 20:00:39 73° 243° (WSW) 20:05:14 145.980
DELFI C3 07 Feb 19:55:41 19:58:34 20° 69° (ENE) 20:01:28 145.870
ZACube-1 07 Feb 19:56:05 19:59:49 30° 72° (ENE) 20:03:29 437.345
AAUSAT CUBESAT 2 07 Feb 19:56:31 20:00:37 75° 258° (WSW) 20:04:47 437.432
PCSat 07 Feb 20:00:31 20:05:51 54° 59° (ENE) 20:11:09 145.827
HO-68 07 Feb 20:01:29 20:08:12 43° 261° (W) 20:14:58 435.675
CINEMA 3 07 Feb 20:03:15 20:07:35 35° 262° (W) 20:11:46 145.822/145.860
FUNcube-1 07 Feb 20:06:12 20:10:07 38° 73° (ENE) 20:13:59 145.935
STRAND 1 07 Feb 20:06:57 20:10:48 22° 294° (WNW) 20:14:38 437.568
CANX-2 07 Feb 20:10:26 20:13:32 20° 266° (W) 20:16:39 2200.000
CUBEBUG 2 07 Feb 20:26:19 20:30:37 54° 260° (W) 20:34:50 437.445
UWE-3 07 Feb 20:32:08 20:36:26 65° 258° (WSW) 20:40:39 435.000/436.395/437.385
HUMSAT D 07 Feb 20:35:51 20:39:09 24° 70° (ENE) 20:42:25 437.325/437.525
Cosmos 2499 07 Feb 20:37:31 20:45:50 59° 79° (E) 20:53:29 435.465 / 435.565
Oscar 11 07 Feb 20:42:28 20:46:40 54° 260° (W) 20:50:54 145.826/435.025
RS-15 07 Feb 21:13:22 21:25:35 79° 244° (WSW) 21:37:52 29.354- 29.394
ISS 07 Feb 21:28:13 21:29:45 13° 23° (NNE) 21:31:18 145.825
DELFI C3 07 Feb 21:29:58 21:33:18 26° 264° (W) 21:36:41 145.870
GONETS M04 07 Feb 21:31:51 21:39:02 29° 276° (W) 21:46:14
ZACube-1 07 Feb 21:33:07 21:36:07 19° 265° (W) 21:39:05 437.345
UNISAT 6 07 Feb 21:35:39 21:39:32 31° 98° (E) 21:43:28 437.425
VELOX 1 07 Feb 21:36:52 21:40:27 24° 69° (ENE) 21:44:03 145.980
AIST 1 07 Feb 21:42:58 21:47:21 84° 83° (E) 21:51:39
FUNcube-1 07 Feb 21:44:05 21:46:30 15° 267° (W) 21:48:54 145.935
PCSat 07 Feb 21:45:12 21:48:46 18° 255° (WSW) 21:52:20 145.827
AISAT 07 Feb 21:52:28 21:56:36 38° 72° (ENE) 22:00:44 437.250
ESTCUBE 1 07 Feb 22:04:46 22:09:10 56° 74° (ENE) 22:13:37 437.505/2401.250
50 SAT 07 Feb 22:09:34 22:13:14 70° 77° (ENE) 22:16:56 437.505
HUMSAT D 07 Feb 22:11:28 22:14:42 22° 264° (W) 22:17:56 437.325/437.525
POLYITAN 1 07 Feb 22:16:43 22:19:52 20° 95° (E) 22:23:01 437.675
QB50P2 07 Feb 22:17:25 22:20:40 21° 95° (E) 22:23:55 145.880/145.840
UKube-1 07 Feb 22:17:56 22:22:13 66° 76° (ENE) 22:26:33 .
CUBEBUG 1 07 Feb 22:18:39 22:23:00 59° 74° (ENE) 22:27:23 437.445
ANTELSAT 07 Feb 22:20:24 22:24:44 76° 285° (WNW) 22:29:08 437.575/2403.000
DX 1 07 Feb 22:25:45 22:30:09 84° 260° (W) 22:34:33 434.975-435.025
TIGRISAT 07 Feb 22:28:08 22:32:25 65° 285° (WNW) 22:36:46 435.000
Cosmos 2499 07 Feb 22:31:51 22:38:11 25° 278° (W) 22:44:12 435.465 / 435.565
SPROUT 07 Feb 22:31:56 22:35:33 27° 70° (ENE) 22:39:11 437.525
BUGSAT 1 07 Feb 22:33:29 22:35:33 14° 93° (E) 22:37:35 437.445
POPSAT HIP 1 07 Feb 22:47:09 22:51:12 46° 100° (E) 22:55:13 437.405
TISAT 1 07 Feb 22:50:51 22:53:28 16° 67° (ENE) 22:56:05 437.305
NANOSAT C BR1 07 Feb 22:53:15 22:57:22 54° 100° (E) 23:01:27 145.865
DUCHIFAT 1 07 Feb 22:55:43 22:59:50 55° 100° (E) 23:03:55 145.980
QB50P1 07 Feb 22:59:55 23:04:06 68° 101° (E) 23:08:16 145.935-145.965
ISS 07 Feb 23:03:24 23:06:40 80° 42° (NE) 23:09:54 145.825
UNISAT 6 07 Feb 23:12:54 23:16:02 20° 292° (WNW) 23:19:14 437.425
VELOX 1 07 Feb 23:13:00 23:16:47 27° 263° (W) 23:20:36 145.980
RS-15 07 Feb 23:29:21 23:36:05 17° 263° (W) 23:42:52 29.354- 29.394
AISAT 07 Feb 23:30:14 23:33:11 17° 266° (W) 23:36:09 437.250
ESTCUBE 1 07 Feb 23:44:40 23:46:18 12° 269° (W) 23:47:55 437.505/2401.250
POLYITAN 1 07 Feb 23:52:05 23:55:40 28° 289° (WNW) 23:59:15 437.675
QB50P2 07 Feb 23:52:55 23:56:26 26° 290° (WNW) 23:59:58 145.880/145.840
ITUPSAT 1 07 Feb 23:57:51 00:00:54 17° 65° (ENE) 00:03:58 437.325
PHONESAT 2.4 07 Feb 23:58:01 23:59:52 14° 144° (SE) 00:01:44 2401.200-2431.200
CUBEBUG 1 07 Feb 23:58:33 23:59:37 11° 269° (W) 00:00:42 437.445
BEESAT 08 Feb 00:07:10 00:10:46 22° 67° (ENE) 00:14:22 436.000
BUGSAT 1 08 Feb 00:07:20 00:11:05 37° 288° (WNW) 00:14:47 437.445
SPROUT 08 Feb 00:08:06 00:11:29 22° 265° (W) 00:14:52 437.525
Oscar 19 08 Feb 00:11:35 00:15:18 20° 94° (E) 00:18:59 437.125/150
JAS-2 08 Feb 00:24:03 00:27:43 18° 91° (E) 00:31:12 435.910
POPSAT HIP 1 08 Feb 00:24:34 00:26:34 13° 294° (WNW) 00:28:33 437.405
TISAT 1 08 Feb 00:24:53 00:28:49 37° 261° (W) 00:32:47 437.305
Cosmos 2491 08 Feb 00:25:50 00:30:45 16° 64° (ENE) 00:35:38 435.465 / 435.565
NANOSAT C BR1 08 Feb 00:31:15 00:32:37 11° 295° (WNW) 00:34:00 145.865
DUCHIFAT 1 08 Feb 00:33:48 00:35:02 11° 295° (WNW) 00:36:17 145.980
SWISSCUBE 08 Feb 00:57:50 01:02:36 83° 76° (ENE) 01:07:23 437.505
CUSAT 1 08 Feb 01:08:27 01:15:56 57° 92° (E) 01:23:51 437.405
ITAMSAT 1 08 Feb 01:16:09 01:19:12 15° 93° (E) 01:22:13 435.822/435.867
YUBILEINY 08 Feb 01:16:27 01:20:16 14° 77° (ENE) 01:24:05 435.215
DANDE 08 Feb 01:24:03 01:30:54 44° 89° (E) 01:38:41 436.750
PHONESAT 2.4 08 Feb 01:33:31 01:36:47 77° 158° (SSE) 01:40:03 2401.200-2431.200
ITUPSAT 1 08 Feb 01:33:47 01:38:21 45° 261° (W) 01:42:57 437.325
BEESAT 3 08 Feb 01:39:57 01:43:21 26° 53° (NE) 01:46:42 437.485
BEESAT 08 Feb 01:43:59 01:48:19 35° 262° (W) 01:52:40 436.000
Oscar 19 08 Feb 01:49:56 01:54:45 42° 289° (WNW) 01:59:32 437.125/150
